Total_Precipitation_Accumulation
2.46 2.58 2.40 2.22 2.22 2.27 2.67 3.00 3.19 2.87 2.61 2.41 2.18 1.87 1.85 1.76 1.78 1.58 1.53 1.38 1.16 1.10 1.06 1.01 1.06 1.17 1.30 1.39 1.50 1.64 1.74 1.83 2.03 2.24 2.40 2.57 2.67 2.74
2.55 2.66 2.63 2.43 2.42 2.40 2.65 2.95 3.16 3.25 2.82 2.50 2.43 2.09 1.91 1.65 1.78 1.60 1.48 1.43 1.18 1.05 1.04 0.98 0.97 1.00 1.05 1.12 1.18 1.24 1.33 1.44 1.55 1.68 1.82 1.95 2.04 2.20
2.21 2.35 2.48 2.59 2.58 2.59 2.75 2.89 3.11 3.33 2.93 2.71 2.84 2.64 2.37 2.08 1.87 1.73 1.52 1.40 1.24 1.12 0.98 0.96 0.95 0.95 0.99 1.03 1.04 1.10 1.17 1.25 1.35 1.44 1.55 1.62 1.63 1.72
2.23 2.35 2.27 2.36 2.38 2.42 2.62 2.83 3.07 3.27 3.11 3.02 3.20 3.14 2.83 2.43 2.24 2.05 1.66 1.43 1.34 1.31 1.10 0.96 0.96 0.97 0.96 1.01 1.05 1.05 1.07 1.10 1.17 1.25 1.34 1.45 1.55 1.59
2.05 2.07 1.98 2.06 2.10 2.29 2.38 2.54 2.78 3.01 3.08 3.03 3.17 3.21 2.92 2.64 2.49 2.12 1.84 1.77 1.46 1.43 1.31 1.11 1.00 0.98 1.00 1.00 1.00 1.02 1.02 1.02 1.04 1.10 1.22 1.31 1.42 1.53
1.75 1.72 1.68 1.75 1.88 2.12 2.22 2.31 2.47 2.69 2.80 2.87 3.03 3.07 2.91 2.81 2.74 2.36 2.12 2.00 1.75 1.46 1.44 1.23 1.12 1.03 0.98 0.95 0.96 1.00 1.07 1.07 1.07 1.10 1.16 1.23 1.29 1.36
1.61 1.46 1.35 1.44 1.56 1.71 1.68 1.91 2.12 2.32 2.44 2.59 2.79 2.99 2.84 2.82 2.65 2.48 2.26 2.16 2.03 1.75 1.69 1.42 1.24 1.10 0.96 0.92 0.93 0.99 1.13 1.23 1.24 1.25 1.28 1.31 1.36 1.42
1.54 1.39 1.26 1.26 1.33 1.40 1.43 1.50 1.67 1.89 2.08 2.37 2.57 2.73 2.60 2.54 2.63 2.60 2.50 2.28 2.16 2.01 2.10 1.95 1.68 1.52 1.23 0.97 0.93 0.96 1.08 1.29 1.40 1.41 1.44 1.46 1.50 1.55
1.55 1.54 1.28 1.06 1.21 1.20 1.28 1.28 1.36 1.48 1.69 2.01 2.20 2.28 2.42 2.40 2.64 2.71 2.79 2.67 2.49 2.37 2.50 2.47 2.30 2.11 1.49 1.27 1.22 1.03 1.00 1.07 1.21 1.33 1.38 1.47 1.54 1.58
1.44 1.42 1.39 1.32 1.23 1.20 1.24 1.26 1.16 1.21 1.36 1.41 1.59 1.88 2.36 2.62 2.64 2.68 2.90 2.87 2.64 2.54 2.63 2.71 2.49 2.40 1.91 1.48 1.27 1.00 0.90 0.92 1.01 1.13 1.25 1.37 1.52 1.64
1.40 1.36 1.32 1.31 1.32 1.19 1.22 1.22 1.15 1.12 1.18 1.28 1.39 1.61 1.89 2.21 2.40 2.45 2.54 2.68 2.71 2.64 2.64 2.77 2.69 2.60 2.57 2.23 1.64 1.26 0.98 0.90 0.93 1.00 1.07 1.17 1.30 1.45
1.37 1.28 1.16 1.08 1.12 1.07 1.14 1.22 1.13 1.11 1.17 1.18 1.20 1.28 1.44 1.63 1.72 1.68 1.79 1.98 2.15 2.32 2.26 2.48 2.74 2.82 3.01 2.93 2.39 1.78 1.38 1.15 1.01 0.95 1.01 1.08 1.20 1.15
1.26 1.17 1.11 1.03 0.97 0.95 0.98 1.05 1.11 1.19 1.23 1.25 1.30 1.28 1.43 1.59 1.65 1.62 1.70 1.81 1.85 1.83 1.80 1.95 2.23 2.44 2.67 2.84 2.69 2.25 1.86 1.61 1.35 1.17 1.10 1.12 1.17 1.15
1.34 1.28 1.23 1.10 0.96 0.89 0.84 0.89 1.00 1.01 1.10 1.22 1.26 1.28 1.37 1.53 1.64 1.72 1.79 1.84 1.82 1.75 1.70 1.79 1.93 1.95 1.91 1.96 2.09 1.99 1.83 1.74 1.72 1.62 1.43 1.40 1.34 1.35
1.33 1.33 1.20 1.08 1.00 0.96 0.95 1.00 1.02 1.02 1.16 1.27 1.29 1.28 1.34 1.45 1.59 1.71 1.75 1.81 1.84 1.75 1.60 1.54 1.58 1.72 1.85 1.71 1.57 1.53 1.56 1.58 1.74 1.93 1.94 1.81 1.66 1.59
1.40 1.38 1.25 1.12 1.03 1.02 0.99 0.96 0.97 1.06 1.14 1.17 1.23 1.32 1.34 1.40 1.48 1.54 1.62 1.62 1.61 1.56 1.52 1.46 1.47 1.53 1.60 1.62 1.54 1.38 1.39 1.50 1.57 1.75 1.99 2.08 2.02 1.89
1.75 1.69 1.60 1.47 1.32 1.27 1.22 1.20 1.21 1.25 1.25 1.28 1.36 1.37 1.30 1.29 1.35 1.40 1.53 1.54 1.40 1.30 1.35 1.45 1.52 1.54 1.47 1.52 1.53 1.39 1.32 1.32 1.39 1.52 1.68 1.73 1.73 1.74
1.72 1.69 1.74 1.73 1.64 1.59 1.54 1.50 1.48 1.43 1.38 1.37 1.38 1.37 1.33 1.27 1.33 1.40 1.50 1.56 1.49 1.32 1.30 1.38 1.48 1.58 1.60 1.54 1.37 1.33 1.32 1.29 1.32 1.46 1.54 1.53 1.41 1.29
1.64 1.69 1.73 1.77 1.78 1.77 1.75 1.63 1.55 1.52 1.52 1.47 1.40 1.38 1.38 1.35 1.42 1.46 1.48 1.48 1.46 1.37 1.33 1.41 1.46 1.47 1.48 1.41 1.30 1.21 1.27 1.30 1.39 1.41 1.42 1.40 1.31 1.20
1.62 1.76 1.79 1.79 1.78 1.74 1.70 1.63 1.54 1.57 1.58 1.48 1.38 1.33 1.33 1.34 1.39 1.40 1.42 1.41 1.41 1.43 1.43 1.38 1.38 1.40 1.39 1.39 1.37 1.28 1.14 1.18 1.28 1.34 1.34 1.36 1.31 1.25
1.69 1.78 1.78 1.72 1.67 1.66 1.63 1.57 1.51 1.51 1.54 1.52 1.44 1.41 1.42 1.42 1.41 1.40 1.46 1.45 1.38 1.33 1.32 1.22 1.23 1.41 1.53 1.61 1.50 1.40 1.41 1.37 1.35 1.31 1.33 1.37 1.37 1.30
1.55 1.62 1.62 1.55 1.51 1.51 1.50 1.47 1.45 1.48 1.52 1.52 1.41 1.34 1.35 1.40 1.37 1.40 1.42 1.39 1.32 1.27 1.27 1.26 1.35 1.47 1.56 1.65 1.56 1.51 1.63 1.63 1.57 1.50 1.45 1.38 1.28 1.21
1.50 1.50 1.45 1.37 1.33 1.33 1.33 1.37 1.41 1.45 1.47 1.44 1.39 1.30 1.29 1.32 1.28 1.31 1.32 1.31 1.34 1.37 1.42 1.46 1.52 1.55 1.51 1.50 1.56 1.55 1.55 1.60 1.61 1.56 1.47 1.39 1.19 1.04